Time,TemperatureF,DewpointF,PressureIn,WindDirection,WindDirectionDegrees,WindSpeedMPH,WindSpeedGustMPH,Humidity,HourlyPrecipIn,Conditions,Clouds,dailyrainin,SoftwareType,DateUTC
2013-11-09 00:13:00,51.0,48.0,30.19,ESE,115,0.0,0.0,88,0.00,,,0.00,weatherlink.com 1.10,2013-11-09 06:13:00,
2013-11-09 00:28:00,51.2,47.0,30.19,ESE,115,0.0,0.0,85,0.00,,,0.00,weatherlink.com 1.10,2013-11-09 06:28:00,
2013-11-09 00:44:00,51.8,47.0,30.19,ESE,115,0.0,0.0,83,0.00,,,0.00,weatherlink.com 1.10,2013-11-09 06:44:00,
2013-11-09 00:58:00,52.1,47.0,30.20,ESE,115,0.0,1.0,82,0.00,,,0.00,weatherlink.com 1.10,2013-11-09 06:58:00,
2013-11-09 01:13:00,52.2,48.0,30.20,ESE,115,0.0,0.0,85,0.00,,,0.00,weatherlink.com 1.10,2013-11-09 07:13:00,
2013-11-09 01:28:00,52.3,48.0,30.20,ESE,115,0.0,0.0,84,0.00,,,0.00,weatherlink.com 1.10,2013-11-09 07:28:00,
2013-11-09 01:44:00,52.1,47.0,30.19,ESE,115,0.0,0.0,83,0.00,,,0.00,weatherlink.com 1.10,2013-11-09 07:44:00,
2013-11-09 01:59:00,52.1,47.0,30.19,ESE,115,0.0,0.0,83,0.00,,,0.00,weatherlink.com 1.10,2013-11-09 07:59:00,
2013-11-09 02:13:00,52.1,47.0,30.19,ESE,115,0.0,0.0,83,0.00,,,0.00,weatherlink.com 1.10,2013-11-09 08:13:00,
2013-11-09 02:28:00,52.2,48.0,30.19,ESE,115,0.0,0.0,84,0.00,,,0.00,weatherlink.com 1.10,2013-11-09 08:28:00,
2013-11-09 02:43:00,52.0,47.0,30.18,ESE,115,0.0,0.0,82,0.00,,,0.00,weatherlink.com 1.10,2013-11-09 08:43:00,
2013-11-09 02:58:00,51.9,46.0,30.18,ESE,115,0.0,1.0,81,0.00,,,0.00,weatherlink.com 1.10,2013-11-09 08:58:00,
2013-11-09 03:13:00,51.9,47.0,30.19,ESE,115,0.0,0.0,82,0.00,,,0.00,weatherlink.com 1.10,2013-11-09 09:13:00,
2013-11-09 03:28:00,51.8,47.0,30.18,ESE,115,0.0,0.0,83,0.00,,,0.00,weatherlink.com 1.10,2013-11-09 09:28:00,
2013-11-09 03:43:00,51.8,47.0,30.17,ESE,115,0.0,0.0,83,0.00,,,0.00,weatherlink.com 1.10,2013-11-09 09:43:00,
2013-11-09 03:58:00,52.1,47.0,30.18,ESE,115,0.0,1.0,84,0.00,,,0.00,weatherlink.com 1.10,2013-11-09 09:58:00,
2013-11-09 04:13:00,52.0,47.0,30.18,ESE,115,0.0,0.0,82,0.00,,,0.00,weatherlink.com 1.10,2013-11-09 10:13:00,
2013-11-09 04:28:00,52.3,48.0,30.18,ESE,115,0.0,0.0,86,0.00,,,0.00,weatherlink.com 1.10,2013-11-09 10:28:00,
2013-11-09 04:43:00,51.9,48.0,30.19,ESE,115,0.0,0.0,87,0.00,,,0.00,weatherlink.com 1.10,2013-11-09 10:43:00,
2013-11-09 04:58:00,51.7,48.0,30.19,ESE,115,0.0,0.0,87,0.00,,,0.00,weatherlink.com 1.10,2013-11-09 10:58:00,
2013-11-09 05:13:00,51.7,48.0,30.20,ESE,115,0.0,0.0,88,0.00,,,0.00,weatherlink.com 1.10,2013-11-09 11:13:00,
2013-11-09 05:28:00,51.6,48.0,30.20,ESE,115,0.0,0.0,88,0.00,,,0.00,weatherlink.com 1.10,2013-11-09 11:28:00,
2013-11-09 05:44:00,52.0,49.0,30.21,ESE,115,0.0,0.0,88,0.00,,,0.00,weatherlink.com 1.10,2013-11-09 11:44:00,
2013-11-09 05:59:00,51.9,48.0,30.20,ESE,115,0.0,0.0,87,0.00,,,0.00,weatherlink.com 1.10,2013-11-09 11:59:00,
2013-11-09 06:14:00,51.8,48.0,30.20,ESE,115,0.0,0.0,87,0.00,,,0.00,weatherlink.com 1.10,2013-11-09 12:14:00,
2013-11-09 06:29:00,51.7,48.0,30.20,ESE,115,0.0,0.0,87,0.00,,,0.00,weatherlink.com 1.10,2013-11-09 12:29:00,
2013-11-09 06:44:00,51.8,48.0,30.20,ESE,115,0.0,0.0,86,0.00,,,0.00,weatherlink.com 1.10,2013-11-09 12:44:00,
2013-11-09 06:59:00,51.9,48.0,30.21,ESE,115,0.0,0.0,85,0.00,,,0.00,weatherlink.com 1.10,2013-11-09 12:59:00,
2013-11-09 07:14:00,52.1,47.0,30.22,ESE,115,0.0,0.0,84,0.00,,,0.00,weatherlink.com 1.10,2013-11-09 13:14:00,
2013-11-09 07:29:00,52.5,49.0,30.22,ESE,115,0.0,0.0,86,0.00,,,0.00,weatherlink.com 1.10,2013-11-09 13:29:00,
2013-11-09 07:44:00,52.3,48.0,30.22,ESE,115,0.0,0.0,85,0.00,,,0.00,weatherlink.com 1.10,2013-11-09 13:44:00,
2013-11-09 07:59:00,52.3,48.0,30.23,ESE,115,0.0,0.0,85,0.00,,,0.00,weatherlink.com 1.10,2013-11-09 13:59:00,
2013-11-09 08:14:00,52.6,48.0,30.23,ESE,115,0.0,0.0,85,0.00,,,0.00,weatherlink.com 1.10,2013-11-09 14:14:00,
2013-11-09 08:29:00,52.7,49.0,30.23,ESE,115,0.0,0.0,86,0.00,,,0.00,weatherlink.com 1.10,2013-11-09 14:29:00,
2013-11-09 08:44:00,53.0,49.0,30.24,ESE,115,0.0,0.0,85,0.00,,,0.00,weatherlink.com 1.10,2013-11-09 14:44:00,
2013-11-09 08:59:00,53.3,49.0,30.23,ESE,115,0.0,0.0,85,0.00,,,0.00,weatherlink.com 1.10,2013-11-09 14:59:00,
2013-11-09 09:14:00,53.6,49.0,30.25,ESE,115,0.0,0.0,84,0.00,,,0.00,weatherlink.com 1.10,2013-11-09 15:14:00,
2013-11-09 09:29:00,53.9,49.0,30.25,ESE,115,0.0,0.0,83,0.00,,,0.00,weatherlink.com 1.10,2013-11-09 15:29:00,
2013-11-09 09:44:00,54.8,48.0,30.25,ESE,115,0.0,0.0,79,0.00,,,0.00,weatherlink.com 1.10,2013-11-09 15:44:00,
2013-11-09 09:59:00,55.9,47.0,30.25,SE,142,2.0,5.0,72,0.00,,,0.00,weatherlink.com 1.10,2013-11-09 15:59:00,
2013-11-09 10:14:00,56.4,47.0,30.25,SE,142,0.0,1.0,72,0.00,,,0.00,weatherlink.com 1.10,2013-11-09 16:14:00,
2013-11-09 10:29:00,56.4,48.0,30.25,SE,142,0.0,0.0,73,0.00,,,0.00,weatherlink.com 1.10,2013-11-09 16:29:00,
2013-11-09 10:44:00,56.5,49.0,30.25,SE,142,0.0,0.0,77,0.00,,,0.00,weatherlink.com 1.10,2013-11-09 16:44:00,
2013-11-09 10:59:00,56.5,50.0,30.25,SE,142,0.0,0.0,79,0.00,,,0.00,weatherlink.com 1.10,2013-11-09 16:59:00,
2013-11-09 11:14:00,56.7,50.0,30.24,SE,142,0.0,0.0,79,0.00,,,0.00,weatherlink.com 1.10,2013-11-09 17:14:00,
2013-11-09 11:29:00,57.3,51.0,30.24,SE,142,0.0,0.0,79,0.00,,,0.00,weatherlink.com 1.10,2013-11-09 17:29:00,
2013-11-09 11:44:00,58.7,49.0,30.23,NE,55,0.0,2.0,69,0.00,,,0.00,weatherlink.com 1.10,2013-11-09 17:44:00,
2013-11-09 11:59:00,58.9,51.0,30.23,NE,55,0.0,0.0,74,0.00,,,0.00,weatherlink.com 1.10,2013-11-09 17:59:00,
2013-11-09 12:14:00,58.5,52.0,30.22,NE,55,0.0,0.0,78,0.00,,,0.00,weatherlink.com 1.10,2013-11-09 18:14:00,
2013-11-09 12:29:00,58.6,52.0,30.21,NE,55,0.0,0.0,79,0.00,,,0.00,weatherlink.com 1.10,2013-11-09 18:29:00,
2013-11-09 12:44:00,58.6,52.0,30.20,NE,55,0.0,0.0,80,0.00,,,0.00,weatherlink.com 1.10,2013-11-09 18:44:00,
2013-11-09 12:59:00,58.3,53.0,30.20,NE,55,0.0,0.0,82,0.00,,,0.00,weatherlink.com 1.10,2013-11-09 18:59:00,
2013-11-09 13:14:00,58.4,54.0,30.19,NE,55,0.0,1.0,84,0.00,,,0.00,weatherlink.com 1.10,2013-11-09 19:14:00,
2013-11-09 13:29:00,58.3,53.0,30.19,NE,55,0.0,0.0,82,0.00,,,0.00,weatherlink.com 1.10,2013-11-09 19:29:00,
2013-11-09 13:44:00,58.1,53.0,30.18,NE,55,0.0,0.0,82,0.00,,,0.00,weatherlink.com 1.10,2013-11-09 19:44:00,
2013-11-09 13:59:00,58.0,53.0,30.18,NE,55,0.0,1.0,83,0.00,,,0.00,weatherlink.com 1.10,2013-11-09 19:59:00,
2013-11-09 14:14:00,57.7,53.0,30.18,NE,55,0.0,0.0,84,0.00,,,0.00,weatherlink.com 1.10,2013-11-09 20:14:00,
2013-11-09 14:29:00,57.7,53.0,30.18,NE,55,0.0,0.0,84,0.00,,,0.00,weatherlink.com 1.10,2013-11-09 20:29:00,
2013-11-09 14:44:00,57.8,53.0,30.18,NE,55,0.0,1.0,85,0.00,,,0.00,weatherlink.com 1.10,2013-11-09 20:44:00,
2013-11-09 14:59:00,57.7,53.0,30.19,North,11,1.0,3.0,84,0.00,,,0.00,weatherlink.com 1.10,2013-11-09 20:59:00,
2013-11-09 15:14:00,57.8,53.0,30.19,North,360,0.0,3.0,84,0.00,,,0.00,weatherlink.com 1.10,2013-11-09 21:14:00,
2013-11-09 15:29:00,57.8,52.0,30.18,North,360,0.0,1.0,82,0.00,,,0.00,weatherlink.com 1.10,2013-11-09 21:29:00,
2013-11-09 15:44:00,58.0,53.0,30.18,North,360,0.0,1.0,82,0.00,,,0.00,weatherlink.com 1.10,2013-11-09 21:44:00,
2013-11-09 15:59:00,58.2,52.0,30.18,NNE,28,0.0,0.0,81,0.00,,,0.00,weatherlink.com 1.10,2013-11-09 21:59:00,
2013-11-09 16:14:00,58.1,52.0,30.19,NNE,28,0.0,1.0,81,0.00,,,0.00,weatherlink.com 1.10,2013-11-09 22:14:00,
2013-11-09 16:29:00,58.3,53.0,30.20,NNE,28,0.0,1.0,83,0.00,,,0.00,weatherlink.com 1.10,2013-11-09 22:29:00,
2013-11-09 16:44:00,58.1,52.0,30.19,NNE,28,0.0,0.0,81,0.00,,,0.00,weatherlink.com 1.10,2013-11-09 22:44:00,
2013-11-09 16:59:00,57.4,52.0,30.19,NNE,28,0.0,1.0,83,0.00,,,0.00,weatherlink.com 1.10,2013-11-09 22:59:00,
2013-11-09 17:14:00,56.7,52.0,30.19,NNE,28,0.0,0.0,84,0.00,,,0.00,weatherlink.com 1.10,2013-11-09 23:14:00,
2013-11-09 17:29:00,56.1,52.0,30.20,NNE,28,0.0,0.0,85,0.00,,,0.00,weatherlink.com 1.10,2013-11-09 23:29:00,
2013-11-09 17:44:00,55.6,52.0,30.20,NNE,28,0.0,0.0,86,0.00,,,0.00,weatherlink.com 1.10,2013-11-09 23:44:00,
2013-11-09 17:59:00,55.2,51.0,30.20,NNE,28,0.0,1.0,87,0.00,,,0.00,weatherlink.com 1.10,2013-11-09 23:59:00,
2013-11-09 18:14:00,55.2,52.0,30.20,NNE,28,0.0,0.0,88,0.00,,,0.00,weatherlink.com 1.10,2013-11-10 00:14:00,
2013-11-09 18:30:00,55.2,52.0,30.21,NNE,28,0.0,0.0,88,0.00,,,0.00,weatherlink.com 1.10,2013-11-10 00:30:00,
2013-11-09 18:44:00,55.1,52.0,30.22,NNE,28,0.0,1.0,88,0.00,,,0.00,weatherlink.com 1.10,2013-11-10 00:44:00,
2013-11-09 19:00:00,55.1,51.0,30.22,NNE,28,0.0,1.0,87,0.00,,,0.00,weatherlink.com 1.10,2013-11-10 01:00:00,
2013-11-09 19:15:00,55.1,51.0,30.22,NNE,28,0.0,1.0,87,0.00,,,0.00,weatherlink.com 1.10,2013-11-10 01:15:00,
2013-11-09 19:30:00,55.0,51.0,30.23,NNE,28,0.0,0.0,86,0.00,,,0.00,weatherlink.com 1.10,2013-11-10 01:30:00,
2013-11-09 19:45:00,55.0,51.0,30.22,NNE,28,0.0,1.0,87,0.00,,,0.00,weatherlink.com 1.10,2013-11-10 01:45:00,
2013-11-09 20:00:00,54.9,51.0,30.23,NNE,28,0.0,1.0,86,0.00,,,0.00,weatherlink.com 1.10,2013-11-10 02:00:00,
2013-11-09 20:15:00,54.7,51.0,30.23,NNE,28,0.0,1.0,86,0.00,,,0.00,weatherlink.com 1.10,2013-11-10 02:15:00,
2013-11-09 20:30:00,54.5,50.0,30.23,NNE,28,0.0,0.0,86,0.00,,,0.00,weatherlink.com 1.10,2013-11-10 02:30:00,
2013-11-09 20:45:00,54.3,50.0,30.23,NNE,28,0.0,1.0,86,0.00,,,0.00,weatherlink.com 1.10,2013-11-10 02:45:00,
2013-11-09 21:00:00,54.0,50.0,30.23,NNE,28,0.0,1.0,86,0.00,,,0.00,weatherlink.com 1.10,2013-11-10 03:00:00,
2013-11-09 21:15:00,53.9,50.0,30.23,NNE,28,0.0,1.0,86,0.00,,,0.00,weatherlink.com 1.10,2013-11-10 03:15:00,
2013-11-09 21:30:00,53.8,49.0,30.24,NNE,28,0.0,1.0,85,0.00,,,0.00,weatherlink.com 1.10,2013-11-10 03:30:00,
2013-11-09 21:45:00,53.9,50.0,30.24,NNE,28,0.0,1.0,85,0.00,,,0.00,weatherlink.com 1.10,2013-11-10 03:45:00,
2013-11-09 22:00:00,53.9,50.0,30.24,NNE,28,0.0,0.0,85,0.00,,,0.00,weatherlink.com 1.10,2013-11-10 04:00:00,
2013-11-09 22:15:00,53.8,49.0,30.24,NNE,28,0.0,0.0,85,0.00,,,0.00,weatherlink.com 1.10,2013-11-10 04:15:00,
2013-11-09 22:30:00,53.8,49.0,30.24,NNE,28,0.0,0.0,85,0.00,,,0.00,weatherlink.com 1.10,2013-11-10 04:30:00,
2013-11-09 22:45:00,53.7,49.0,30.24,NNE,28,0.0,0.0,85,0.00,,,0.00,weatherlink.com 1.10,2013-11-10 04:45:00,
2013-11-09 23:00:00,53.7,49.0,30.24,NNE,28,0.0,1.0,85,0.00,,,0.00,weatherlink.com 1.10,2013-11-10 05:00:00,
2013-11-09 23:15:00,53.5,49.0,30.24,NNE,28,0.0,0.0,84,0.00,,,0.00,weatherlink.com 1.10,2013-11-10 05:15:00,
2013-11-09 23:30:00,53.5,49.0,30.23,NNE,28,0.0,0.0,85,0.00,,,0.00,weatherlink.com 1.10,2013-11-10 05:30:00,
2013-11-09 23:45:00,53.4,49.0,30.23,NNE,28,0.0,0.0,84,0.00,,,0.00,weatherlink.com 1.10,2013-11-10 05:45:00,